Location: Mt. Bigelow
(32.4165°N, 110.7345°W)
Time: 06:22:54
(UTC-07:00)

ISS - Visible Passes

Search period start: 25 September 2017 00:00
Search period end: 05 October 2017 00:00
Orbit: 401 x 407 km, 51.6° (Epoch: 25 September)

Date Brightness Start Highest point End Pass type
(mag) Time Alt. Az. Time Alt. Az. Time Alt. Az.
25 Sep -1.5 19:59:23 10° W 20:01:55 20° NW 20:02:57 18° N visible
26 Sep -2.5 19:06:23 10° WSW 19:09:27 39° NW 19:12:32 10° NNE visible
27 Sep -0.6 19:53:29 10° NW 19:53:56 10° NNW 19:54:22 10° NNW visible
28 Sep -1.1 18:59:04 10° WNW 19:01:18 17° NW 19:03:32 10° N visible
